Eielson AFB, AK

5:35 PM AKST on February 24, 2017 (GMT -0900)
Eielson Air Force Base

Weather History for PAEI - January, 2013

Change the Weather History Date:

Monday, January 7, 2013

  Actual Average Record
Temperature  
Mean Temperature -8 °F -  
Max Temperature -1 °F 1 °F 41 °F (2001)
Min Temperature -16 °F -15 °F -58 °F (1975)
Degree Days  
Heating Degree Days 73    
Moisture  
Dew Point -13 °F    
Average Humidity 78    
Maximum Humidity 82    
Minimum Humidity 75    
Precipitation  
Precipitation 0.00 in - - ()
Sea Level Pressure  
Sea Level Pressure 29.34 in    
Wind  
Wind Speed 0 mph (SSE)    
Max Wind Speed 4 mph    
Max Gust Speed -    
Visibility 10 miles    
Events      
Averages and records for this station are not official NWS values.
T = Trace of Precipitation, MM = Missing Value Source: NWS Daily Summary

Daily Weather History Graph

Daily Weather History Graph

Search for Another Location

Airport or City:

Trip Planner

Search our weather history database for the weather conditions in past years. The results will help you decide how hot, cold, wet, or windy it might be!

Date:

Astronomy

Jan. 07, 2013 Rise Set
Actual Time 10:38 AM AKST 3:11 PM AKST
Civil Twilight 9:22 AM AKST 4:27 PM AKST
Nautical Twilight 8:14 AM AKST 5:35 PM AKST
Astronomical Twilight 7:14 AM AKST 6:36 PM AKST
Moon 5:41 AM AKST (1/7) 11:56 AM AKST (1/7)
Length of Visible Light 7h 04m
Length of Day
4h 33m
Waning Crescent, 21% of the Moon is Illuminated
Jan 7
Waning Crescent
Jan 11
New
Jan 18
First Quarter
Jan 26
Full
Feb 3
Last Quarter

Hourly Weather History & Observations

Time (AKST) Temp. Windchill Dew Point Humidity Pressure Visibility Wind Dir Wind Speed Gust Speed Precip Events Conditions
12:55 AM -6.9 °F - -11.7 °F 79% 29.25 in 10.0 mi Calm Calm - N/A   Overcast
1:55 AM -6.3 °F - -11.4 °F 79% 29.24 in 10.0 mi Calm Calm - N/A   Scattered Clouds
2:55 AM -5.8 °F - -11.0 °F 78% 29.23 in 10.0 mi Calm Calm - N/A   Partly Cloudy
3:55 AM -5.6 °F - -10.7 °F 79% 29.21 in 10.0 mi Calm Calm - N/A   Clear
4:55 AM -4.2 °F - -9.2 °F 79% 29.20 in 10.0 mi Calm Calm - N/A   Clear
5:55 AM -3.8 °F - -8.7 °F 80% 29.19 in 10.0 mi Calm Calm - N/A   Mostly Cloudy
6:55 AM -5.8 °F - -10.8 °F 79% 29.20 in 10.0 mi Calm Calm - N/A   Clear
7:55 AM -3.8 °F - -8.9 °F 79% 29.22 in 10.0 mi Calm Calm - N/A   Overcast
8:55 AM -3.6 °F - -8.5 °F 80% 29.24 in 10.0 mi Calm Calm - N/A   Partly Cloudy
9:55 AM -5.3 °F - -10.1 °F 80% 29.26 in 10.0 mi Calm Calm - N/A   Clear
10:55 AM -6.5 °F - -11.2 °F 80% 29.29 in 10.0 mi Calm Calm - N/A   Clear
11:55 AM -7.8 °F -16.7 °F -12.6 °F 79% 29.31 in 10.0 mi SSE 3.5 mph - N/A   Clear
12:55 PM -3.8 °F - -9.4 °F 77% 29.33 in 10.0 mi Calm Calm - N/A   Clear
1:55 PM -1.8 °F - -6.9 °F 79% 29.36 in 10.0 mi Calm Calm - N/A   Clear
2:55 PM -4.0 °F - -8.3 °F 82% 29.37 in 10.0 mi Calm Calm - N/A   Clear
3:55 PM -9.0 °F - -14.1 °F 79% 29.40 in 10.0 mi Calm Calm - N/A   Clear
4:55 PM -9.0 °F - -14.3 °F 78% 29.41 in 10.0 mi Calm Calm - N/A   Clear
6:55 PM -10.5 °F - -15.7 °F 78% 29.45 in 10.0 mi Calm Calm - N/A   Clear
7:55 PM -12.8 °F - -18.0 °F 78% 29.46 in 10.0 mi Calm Calm - N/A   Clear
8:55 PM -12.5 °F - -18.0 °F 76% 29.48 in 10.0 mi Calm Calm - N/A   Clear
9:55 PM -14.6 °F - -20.4 °F 75% 29.52 in 10.0 mi Calm Calm - N/A   Clear
10:55 PM -15.7 °F - -21.6 °F 75% 29.54 in 10.0 mi Calm Calm - N/A   Clear
11:55 PM -16.1 °F - -21.8 °F 75% 29.57 in 10.0 mi Calm Calm - N/A   Clear